SCP
0 0 0 0 0 0 0 0 0 0 0 0 0 0 0 0 0 0 0 0 0 0 0 0 0 0 0 0 0 0 0 0 0 0 0 0 0 0 0 0 0 0 0
0 0 0 0 0 0 0 0 0 0 0 0 0 0 0 0 0 0 0 0 0 0 0 0 0 0 0 0 0 0 0 0 0 0 0 0 0 0 0 0 0 0 0
0 0 0 0 0 0 0 0 0 0 0 0 0 0 0 0 0 0 0 0 0 0 0 0 0 0 0 0 0 0 0 0 0 0 0 0 0 0 0 0 0 0 0
0 0 0 0 0 0 0 0 0 0 0 0 0 0 0 0 0 0 0 0 0 0 0 0 0 0 0 0 0 0 0 0 0 0 0 0 0 0 0 0 0 0 0
0 0 0 0 0 0 0 0 0 0 0 0 0 0 0 0 0 0 0 0 0 0 0 0 0 0 0 0 0 0 0 0 0 0 0 0 0 0 0 0 0 0 0
0 0 0 0 0 0 0 0 0 0 0 0 0 0 0 0 0 0 0 0 0 0 0 0 0 0 0 0 0 0 0 0 0 0 0 0 0 0 0 0 0 0 0
0 0 0 0 0 0 0 0 0 0 0 0 0 0 0 0 0 0 0 0 0 0 0 0 0 0 0 0 0 0 0 0 0 0 0 0 0 0 0 0 0 0 0
0 0 0 0 0 0 0 0 0 0 0 0 0 0 0 0 0 0 0 0 0 0 0 0 0 0 0 0 0 0 0 0 0 0 0 0 0 0 0 0 0 0 0
0 0 0 0 0 0 0 0 0 0 0 0 0 0 0 0 0 0 0 0 0 0 0 0 0 0 0 0 0 0 0 0 0 0 0 0 0 0 0 0 0 0 0
0 0 0 0 0 0 0 0 0 0 0 0 0 0 0 0 0 0 0 0 0 0 0 0 0 0 0 0 0 0 0 0 0 0 0 0 0 0 0 0 0 0 0
0 0 0 0 0 0 0 0 0 0 0 0 0 0 0 0 0 0 0 0 0 0 0 0 0 0 0 0 0 0 0 0 0 0 0 0 0 0 0 0 0 0 0
0 0 0 0 0 0 0 0 0 0 0 0 0 0 0 0 0 0 0 0 0 0 0 0 0 0 0 0 0 0 0 0 0 0 0 0 0 0 0 0 0 0 0
0 0 0 0 0 0 0 0 0 0 0 0 0 0 0 0 0 0 0 0 0 0 0 0 0 0 0 0 0 0 0 0 0 0 0 0 0 0 0 0 0 0 0
0 0 0 0 0 0 0 0 0 0 0 0 0 0 0 0 0 0 0 0 0 0 0 0 0 0 0 0 0 0 0 0 0 0 0 0 0 0 0 0 0 0 0
0 0 0 0 0 0 0 0 0 0 0 0 0 0 0 0 0 0 0 0 0 0 0 0 0 0 0 0 0 0 0 0 0 0 0 0 0 0 0 0 0 0 0
0 0 0 0 0 0 0 0 0 0 0 0 0 0 0 0 0 0 0 0 0 0 0 0 0 0 0 0 0 0 0 0 0 0 0 0 0 0 0 0 0 0 0
0 0 0 0 0 0 0 0 0 0 0 0 0 0 0 0 0 0 0 0 0 0 0 0 0 0 0 0 0 0 0 0 0 0 0 0 0 0 0 0 0 0 0
0 0 0 0 0 0 0 0 0 0 0 0 0 0 0 0 0 0 0 0 0 0 0 0 0 0 0 0 0 0 0 0 0 0 0 0 0 0 0 0 0 0 0
0 0 0 0 0 0 0 0 0 0 0 0 0 0 0 0 0 0 0 0 0 0 0 0 0 0 0 0 0 0 0 0 0 0 0 0 0 0 0 0 0 0 0
0 0 0 0 0 0 0 0 0 0 0 0 0 0 0 0 0 0 0 0 0 0 0 0 0 0 0 0 0 0 0 0 0 0 0 0 0 0 0 0 0 0 0
0 0 0 0 0 0 0 0 0 0 0 0 0 0 0 0 0 0 0 0 0 0 0 0 0 0 0 0 0 0 0 0 0 0 0 0 0 0 0 0 0 0 0
0 0 0 0 0 0 0 0 0 0 0 0 0 0 0 0 0 0 0 0 0 0 0 0 0 0 0 0 0 0 0 0 0 0 0 0 0 0 0 0 0 0 0
0 0 0 0 0 0 0 0 0 0 0 0 0 0 0 0 0 0 0 0 0 0 0 0 0 0 0 0 0 0 0 0 0 0 0 0 0 0 0 0 0 0 0
0 0 0 0 0 0 0 0 0 0 0 0 0 0 0 0 0 0 0 0 0 0 0 0 0 0 0 0 0 0 0 0 0 0 0 0 0 0 0 0 0 0 0
0 0 0 0 0 0 0 0 0 0 0 0 0 0 0 0 0 0 0 0 0 0 0 0 0 0 0 0 0 0 0 0 0 0 0 0 0 0 0 0 0 0 0
0 0 0 0 0 0 0 0 0 0 0 0 0 0 0 0 0 0 0 0 0 0 0 0 0 0 0 0 0 0 0 0 0 0 0 0 0 0 0 0 0 0 0
Wind_Speed
2 3 2 7 8 9 10 11 12 13 13 13 13 13 13 14 14 14 14 14 14 13 14 15 15 15 16 16 16 16 15 15 15 14 14 13 13 12 12 12 11 9 12
1 2 4 7 8 9 11 11 12 12 13 13 13 12 13 13 14 13 13 13 14 14 14 14 15 15 15 14 14 15 15 14 14 13 13 12 12 11 11 11 10 7 11
2 2 3 7 9 10 10 11 12 12 13 13 13 13 13 13 14 13 13 13 14 14 14 15 14 14 14 14 14 14 13 13 12 12 11 7 8 10 10 10 10 10 11
2 2 3 8 9 10 10 10 11 12 12 12 13 13 12 12 13 13 13 13 14 14 15 14 14 14 14 13 13 13 12 12 12 11 6 5 5 9 9 10 9 10 10
3 2 2 8 9 10 10 10 11 11 11 12 12 12 12 13 13 14 13 13 13 14 14 14 14 13 13 12 12 11 10 10 10 8 5 4 4 7 9 9 9 9 9
2 2 2 7 8 9 9 9 10 11 11 11 11 11 12 12 13 13 13 12 12 13 13 13 13 12 11 11 10 9 9 9 8 5 5 4 3 6 8 8 8 8 8
1 1 1 6 8 9 9 9 10 10 10 10 10 10 10 11 11 11 11 11 11 11 11 11 11 11 10 9 9 9 9 8 5 4 4 3 3 6 7 7 7 8 8
2 2 1 5 8 7 8 8 9 9 9 9 9 9 10 10 10 10 10 10 10 10 10 10 9 9 8 7 7 7 7 7 5 4 3 3 4 6 7 7 7 7 7
2 2 2 2 3 5 7 8 8 8 8 8 8 9 9 9 9 8 8 8 8 8 8 8 8 7 6 6 5 6 6 5 3 2 3 2 5 6 7 8 7 7 7
2 2 2 3 3 3 3 6 6 6 7 7 7 7 8 8 7 7 6 6 6 7 7 6 6 6 5 4 4 4 5 3 2 2 2 3 5 6 7 8 7 7 7
2 1 2 2 2 2 2 3 4 5 5 6 5 7 6 4 4 4 4 5 6 5 5 5 5 4 4 3 3 3 3 1 2 1 1 4 5 6 7 7 6 6 7
2 1 1 1 2 2 2 3 2 3 3 4 3 4 3 3 3 3 4 4 5 5 4 3 3 3 2 2 2 2 1 2 2 2 2 4 5 6 6 6 6 6 7
3 2 2 2 2 2 2 2 2 2 2 3 4 4 3 3 3 3 2 3 3 3 2 2 2 1 1 1 1 1 1 1 1 1 2 4 5 6 6 6 6 6 7
3 2 2 2 2 2 1 1 1 1 1 2 2 3 2 2 2 2 1 2 2 1 1 1 1 1 1 1 1 1 1 1 1 1 2 4 5 5 5 6 5 6 6
3 3 2 2 3 2 2 1 2 1 1 1 1 2 2 1 1 1 1 1 1 1 1 1 1 1 1 1 0 1 1 1 1 1 1 3 4 4 5 5 5 5 5
4 3 2 3 3 3 2 2 1 1 1 1 1 1 1 1 1 1 1 1 1 1 1 1 1 0 0 0 1 0 1 1 1 1 1 2 3 3 4 5 5 5 5
4 3 3 3 3 3 2 1 1 1 1 1 1 1 1 1 1 1 1 1 1 1 1 1 1 1 1 1 1 1 0 0 1 1 1 1 1 2 2 3 3 4 5
4 4 4 4 4 3 2 1 1 1 1 1 0 0 1 1 1 1 1 0 1 1 1 1 1 1 1 1 1 1 1 0 1 1 1 1 1 1 2 3 3 3 4
5 5 4 3 4 4 3 1 1 1 1 0 0 0 0 1 1 2 1 0 1 1 1 1 1 1 1 1 1 1 1 1 1 1 0 1 1 1 2 3 4 4 5
5 5 5 4 3 3 2 1 1 1 0 0 0 0 1 1 1 1 1 0 1 1 1 1 1 1 1 1 1 2 1 1 1 1 1 1 1 1 2 2 2 3 4
4 5 5 4 3 3 2 2 1 1 1 1 1 1 1 1 1 1 1 1 1 1 1 1 1 1 1 1 2 2 2 2 1 1 1 1 1 2 1 2 2 2 2
6 5 5 5 4 4 3 2 2 2 1 1 1 0 1 1 2 2 2 1 1 1 1 1 1 1 0 0 1 1 2 2 2 1 1 1 1 1 1 2 2 2 2
6 7 6 5 5 4 3 2 2 2 1 1 1 1 1 1 2 2 2 2 1 1 1 1 1 2 1 0 1 2 1 1 2 2 1 1 1 1 2 1 1 2 2
8 6 5 5 5 4 4 3 3 3 2 2 1 1 1 1 1 1 2 2 1 1 1 2 2 1 2 1 0 1 1 2 1 1 2 1 2 2 2 2 1 2 1
7 6 5 5 5 4 4 5 4 2 2 1 0 1 1 1 1 1 2 2 1 1 1 1 1 2 2 2 1 1 1 0 1 1 2 2 2 2 2 2 1 1 1
6 6 5 5 5 5 5 4 4 4 3 2 1 1 1 1 1 1 1 1 1 1 2 2 2 2 2 2 1 1 1 1 2 2 2 2 2 2 2 1 1 1 1
Wind_Direction
314 314 61 84 86 87 89 88 87 92 94 93 94 97 100 101 103 105 107 109 109 111 116 117 116 120 121 122 124 124 123 125 126 126 124 122 121 120 121 121 120 121 125
300 323 94 87 89 89 89 89 91 93 94 93 94 98 102 104 105 105 106 107 106 106 113 117 115 117 118 120 124 124 124 126 127 126 125 123 122 124 123 122 122 124 128
27 11 88 92 92 91 89 88 94 94 96 96 98 102 104 107 107 106 105 105 106 105 106 111 113 114 116 118 120 121 122 122 124 123 118 113 121 127 127 128 128 129 132
62 29 82 93 93 93 92 90 93 94 96 96 97 100 101 105 104 104 103 103 105 106 106 106 108 114 116 118 118 120 122 122 121 117 106 113 122 131 133 132 134 135 136
62 33 85 98 97 99 98 95 92 94 95 97 98 98 98 101 103 102 100 101 104 106 107 108 108 111 114 116 118 122 125 125 123 117 113 114 118 137 138 140 141 141 141
62 26 89 101 102 104 99 97 94 94 96 98 99 100 100 102 101 102 101 100 102 105 107 108 110 112 115 116 119 124 126 127 120 115 118 122 131 150 148 147 149 150 151
97 29 64 103 107 107 101 97 96 93 94 98 100 100 102 105 105 104 102 101 103 106 107 108 109 111 115 119 121 122 124 127 122 123 130 137 152 160 160 159 159 160 161
102 56 77 105 106 106 103 98 96 94 92 93 97 99 101 101 102 102 102 104 105 106 109 111 109 110 113 118 123 127 130 135 132 139 144 153 168 173 172 172 173 176 178
93 72 45 65 85 99 104 98 97 97 96 95 93 94 96 99 99 99 100 103 106 109 111 114 113 113 115 116 123 134 140 139 130 136 157 163 176 183 183 183 185 189 188
92 74 51 50 51 52 72 94 98 97 95 94 92 91 93 94 94 96 96 99 105 111 112 116 118 116 115 115 123 138 141 143 135 147 161 179 185 187 190 189 190 194 196
109 77 75 62 57 55 55 77 84 91 83 78 77 81 74 58 62 78 93 103 109 112 116 119 125 122 114 106 109 120 124 123 142 165 177 189 192 194 193 189 193 199 203
160 157 118 106 78 63 69 59 48 58 55 51 53 57 56 55 56 70 72 90 97 103 104 111 114 103 85 77 89 95 107 145 164 184 185 195 202 204 203 201 206 211 215
171 162 156 145 109 94 79 73 50 51 48 51 55 60 59 52 48 46 43 51 55 67 60 62 59 62 77 98 98 101 128 160 177 193 196 203 209 212 214 217 220 221 222
145 160 155 142 128 123 110 96 81 72 61 60 62 69 70 57 46 46 48 43 52 62 68 58 52 39 58 119 138 139 164 192 196 207 207 209 214 218 219 222 222 222 227
158 166 163 140 138 135 122 121 108 99 93 84 73 71 82 81 62 53 49 50 49 57 77 79 70 52 53 53 108 140 174 194 212 220 233 227 224 224 227 230 230 228 228
171 172 158 146 148 134 128 127 121 115 103 83 79 83 91 103 99 90 71 50 37 37 54 104 134 98 29 53 52 106 203 205 213 223 236 251 244 229 228 235 233 236 237
175 167 161 162 145 137 136 138 123 116 110 99 85 88 101 114 118 109 93 46 9 36 65 75 75 72 63 56 45 24 337 266 217 219 221 238 267 252 240 238 237 242 246
165 168 175 169 149 148 144 139 114 110 118 129 125 85 91 123 127 112 95 23 5 53 69 77 70 76 60 55 36 6 5 349 269 231 227 239 260 273 272 263 257 258 253
173 171 169 161 151 151 144 128 112 100 104 107 97 98 101 123 133 129 124 25 50 65 54 72 65 92 105 85 58 24 8 352 318 272 271 264 259 266 272 280 273 268 264
174 168 164 161 156 143 128 103 73 62 23 37 129 206 183 172 149 133 133 79 67 78 52 64 76 60 84 67 65 35 3 349 359 348 274 272 272 262 261 271 280 279 276
170 169 169 167 169 148 141 149 150 195 248 268 243 219 200 184 161 151 145 118 107 115 115 102 91 75 56 72 65 18 358 3 6 344 316 306 298 278 271 270 264 266 276
181 180 178 182 180 176 173 166 163 160 191 220 265 265 223 199 191 186 172 171 163 134 104 106 115 115 128 96 103 71 347 340 348 4 2 342 309 295 282 282 277 265 262
187 188 190 189 186 184 170 129 102 74 44 27 336 295 269 220 209 190 177 176 172 166 196 215 178 167 189 239 145 146 154 261 311 335 348 360 340 317 300 297 282 277 257
195 189 188 184 182 181 166 159 161 169 192 223 225 242 283 256 231 202 184 184 189 189 211 228 193 181 170 215 223 183 191 184 202 307 331 339 321 315 305 307 301 289 276
190 184 183 177 181 180 173 175 172 185 206 220 221 259 293 307 286 240 198 184 197 211 222 231 211 192 184 193 194 187 171 151 197 205 284 314 334 318 303 300 298 293 293
185 182 178 176 188 184 180 180 178 187 196 193 212 231 252 275 284 271 218 197 206 219 228 230 219 201 198 197 192 190 190 191 203 194 236 283 303 309 318 318 313 300 286